Date,TemperatureHighF,TemperatureAvgF,TemperatureLowF,DewpointHighF,DewpointAvgF,DewpointLowF,HumidityHigh,HumidityAvg,HumidityLow,PressureMaxIn,PressureMinIn,WindSpeedMaxMPH,WindSpeedAvgMPH,GustSpeedMaxMPH,PrecipitationSumIn
2013-3-1,64,56,44,51,40,30,85,58,29,30.26,30.12,10,4,16,0.00
2013-3-2,63,54,47,46,36,26,86,52,25,30.39,30.23,18,10,30,0.00
2013-3-3,66,59,42,57,50,38,88,73,58,30.26,29.97,15,7,22,0.00
2013-3-4,71,66,62,64,60,56,90,82,74,29.97,29.74,18,14,31,0.00
2013-3-5,68,62,53,48,35,26,68,38,23,30.30,30.09,23,13,33,0.00
2013-3-6,58,53,42,54,39,26,85,60,36,30.41,30.19,18,8,24,0.00
2013-3-7,67,64,59,62,59,54,91,86,79,30.20,30.09,15,7,21,0.00
2013-3-8,69,65,65,66,61,-100,94,90,88,30.10,29.97,14,9,20,0.00
2013-3-9,72,68,66,68,66,64,95,92,87,29.97,29.62,20,11,30,0.00
2013-3-10,74,67,56,68,54,41,96,67,32,30.05,29.57,20,12,37,0.05
2013-3-11,70,60,50,48,36,26,67,44,20,30.14,29.98,15,8,27,0.00
2013-3-12,70,62,49,57,50,44,85,65,45,30.20,30.05,11,5,16,0.00
2013-3-13,67,62,54,59,55,49,95,77,54,30.39,30.20,14,8,20,0.00
2013-3-14,71,66,62,62,60,57,90,80,64,30.37,30.24,11,6,15,0.00
2013-3-15,72,67,63,64,62,60,92,84,73,30.24,30.02,15,8,22,0.00
2013-3-16,73,69,66,67,65,62,92,87,78,30.02,29.79,18,11,26,0.00
2013-3-17,74,70,67,70,68,65,97,91,84,29.80,29.65,15,9,20,0.00
2013-3-18,76,71,68,70,68,66,98,90,79,29.85,29.69,12,6,17,0.00
2013-3-19,74,69,65,70,67,60,97,92,82,29.95,29.80,23,12,29,0.00
2013-3-20,72,67,63,68,60,54,96,77,63,30.12,29.86,38,18,48,0.00
2013-3-21,72,68,64,68,62,-100,93,84,76,29.99,29.66,14,8,23,0.00
2013-3-22,74,71,69,71,69,67,97,94,90,29.71,29.60,13,7,23,0.00
2013-3-23,75,70,66,71,68,64,99,94,83,29.67,29.55,13,6,18,0.00
2013-3-24,68,62,53,67,42,25,98,56,23,30.10,29.63,23,13,39,0.00
2013-3-25,60,53,45,38,33,21,68,48,23,30.33,30.10,22,11,32,0.00
2013-3-26,61,57,51,46,38,33,65,50,36,30.44,30.30,24,13,32,0.00
2013-3-27,64,62,58,59,52,43,86,70,56,30.31,30.17,13,8,18,0.00
2013-3-28,69,64,63,63,58,-100,92,85,81,30.20,30.12,12,6,18,0.00
2013-3-29,72,68,64,66,64,62,94,88,79,30.16,30.04,12,7,21,0.00
2013-3-30,75,70,66,70,67,64,96,91,82,30.08,29.92,13,8,21,0.00
2013-3-31,75,70,68,71,67,-100,97,93,86,29.93,29.77,21,10,28,0.00